Погода в Катанде

Россия / Республика Алтай     50°09′53″N   86°10′39″E
темп.,
°C
ветер,
м/с
пор.,
м/с
влажн.,
%
обл.,
%
осадки,
мм/ч
давл.,
гПа
погр.,
м
18 января, вт
вт1801:00−6з0183100 0.1 102110
04:00−7ююз0194100 0.3 102318
07:00−7з0197100 0.8 102411
10:00−6зсз1197100 0.6 102433
13:00−4зюз119473 0.8 1023206
16:00−4зюз119257 0.1 1022158
19:00−9с1195100 0.1 102510
22:00−8св1195100 0.1 102410
19 января, ср
ср1901:00−8ссв0096100 0.4 102310
04:00−9в1196100 0.4 102413
07:00−10в119599 0.8 102319
10:00−10всв1194100 0.2 102324
13:00−7юв1187100 0.3 1019213
16:00−6вюв2292100 0.3 1018189
19:00−8всв2294100 0.5 102023
22:00−8всв1296100 1.1 102053
20 января, чт
чт2001:00−8св1196100 2.0 102037
04:00
07:00−10всв0197100 2.4 102211
10:00−10в0095100 0.7 102458
13:00
16:00−9юв119393 0.1 102583
19:00−15св3294100 0.1 103012
22:00−15св2292100 0.0 103111
21 января, пт
пт2101:00−17св2293100 0.0 103211
04:00−18ссв229484 0.0 103210
07:00−18ссв2294100 0.0 103211
10:00−17ссв2290100 0.0 103111
13:00−11ююв118335 0.0 1026129
16:00−10юв118886 0.0 102449
19:00−17св329354 0.0 102910
22:00−18ссв328647 0.0 103010
22 января, сб
сб2201:00−19св228461 0.0 103010
04:00−19св228742 0.0 10319
07:00−20св229133 0.0 103210
10:00−19св229131 0.0 103310
13:00−13ююз018732 0.0 1029136
16:00−12ююз019336 0.0 102952
19:00−19св329447 0.0 103510
22:00−20св229360 0.0 103710